#datetime,building,power
2024-01-22T00:00:00,axn,35.05
2024-01-22T00:01:00,axn,34.74
2024-01-22T00:02:00,axn,34.99
2024-01-22T00:03:00,axn,35.72
2024-01-22T00:04:00,axn,35.55
2024-01-22T00:05:00,axn,35.90
2024-01-22T00:06:00,axn,36.08
2024-01-22T00:07:00,axn,36.18
2024-01-22T00:08:00,axn,35.72
2024-01-22T00:09:00,axn,35.33
2024-01-22T00:10:00,axn,35.22
2024-01-22T00:11:00,axn,35.69
2024-01-22T00:12:00,axn,36.46
2024-01-22T00:13:00,axn,35.71
2024-01-22T00:14:00,axn,34.24
2024-01-22T00:15:00,axn,34.14
2024-01-22T00:16:00,axn,34.25
2024-01-22T00:17:00,axn,34.33
2024-01-22T00:18:00,axn,33.60
2024-01-22T00:19:00,axn,33.79
2024-01-22T00:20:00,axn,33.79
2024-01-22T00:21:00,axn,33.82
2024-01-22T00:22:00,axn,33.12
2024-01-22T00:23:00,axn,33.55
2024-01-22T00:24:00,axn,33.34
2024-01-22T00:25:00,axn,33.20
2024-01-22T00:26:00,axn,34.19
2024-01-22T00:27:00,axn,34.13
2024-01-22T00:28:00,axn,34.02
2024-01-22T00:29:00,axn,33.51
2024-01-22T00:30:00,axn,33.38
2024-01-22T00:31:00,axn,33.73
2024-01-22T00:32:00,axn,31.66
2024-01-22T00:33:00,axn,28.88
2024-01-22T00:34:00,axn,28.69
2024-01-22T00:35:00,axn,28.68
2024-01-22T00:36:00,axn,28.89
2024-01-22T00:37:00,axn,28.66
2024-01-22T00:38:00,axn,28.66
2024-01-22T00:39:00,axn,28.68
2024-01-22T00:40:00,axn,29.46
2024-01-22T00:41:00,axn,29.83
2024-01-22T00:42:00,axn,28.60
2024-01-22T00:43:00,axn,28.77
2024-01-22T00:44:00,axn,28.79
2024-01-22T00:45:00,axn,28.62
2024-01-22T00:46:00,axn,29.09
2024-01-22T00:47:00,axn,28.60
2024-01-22T00:48:00,axn,28.39
2024-01-22T00:49:00,axn,28.74
2024-01-22T00:50:00,axn,28.78
2024-01-22T00:51:00,axn,28.58
2024-01-22T00:52:00,axn,28.43
2024-01-22T00:53:00,axn,28.39
2024-01-22T00:54:00,axn,28.70
2024-01-22T00:55:00,axn,28.21
2024-01-22T00:56:00,axn,28.39
2024-01-22T00:57:00,axn,28.46
2024-01-22T00:58:00,axn,28.64
2024-01-22T00:59:00,axn,28.57
2024-01-22T01:00:00,axn,28.82
2024-01-22T01:01:00,axn,28.40
2024-01-22T01:02:00,axn,28.62
2024-01-22T01:03:00,axn,28.30
2024-01-22T01:04:00,axn,28.32
2024-01-22T01:05:00,axn,28.29
2024-01-22T01:06:00,axn,28.61
2024-01-22T01:07:00,axn,28.54
2024-01-22T01:08:00,axn,28.58
2024-01-22T01:09:00,axn,28.39
2024-01-22T01:10:00,axn,28.53
2024-01-22T01:11:00,axn,28.58
2024-01-22T01:12:00,axn,28.41
2024-01-22T01:13:00,axn,28.33
2024-01-22T01:14:00,axn,28.48
2024-01-22T01:15:00,axn,28.46
2024-01-22T01:16:00,axn,29.36
2024-01-22T01:17:00,axn,29.23
2024-01-22T01:18:00,axn,28.52
2024-01-22T01:19:00,axn,28.57
2024-01-22T01:20:00,axn,28.44
2024-01-22T01:21:00,axn,28.85
2024-01-22T01:22:00,axn,28.59
2024-01-22T01:23:00,axn,28.57
2024-01-22T01:24:00,axn,28.81
2024-01-22T01:25:00,axn,29.65
2024-01-22T01:26:00,axn,28.93
2024-01-22T01:27:00,axn,28.85
2024-01-22T01:28:00,axn,28.75
2024-01-22T01:29:00,axn,28.81
2024-01-22T01:30:00,axn,28.88
2024-01-22T01:31:00,axn,28.67
2024-01-22T01:32:00,axn,28.76
2024-01-22T01:33:00,axn,28.88
2024-01-22T01:34:00,axn,28.81
2024-01-22T01:35:00,axn,28.83
2024-01-22T01:36:00,axn,28.68
2024-01-22T01:37:00,axn,28.81
2024-01-22T01:38:00,axn,28.81
2024-01-22T01:39:00,axn,31.90
2024-01-22T01:40:00,axn,32.01
2024-01-22T01:41:00,axn,28.99
2024-01-22T01:42:00,axn,29.05
2024-01-22T01:43:00,axn,28.82
2024-01-22T01:44:00,axn,28.86
2024-01-22T01:45:00,axn,28.88
2024-01-22T01:46:00,axn,29.17
2024-01-22T01:47:00,axn,28.83
2024-01-22T01:48:00,axn,28.88
2024-01-22T01:49:00,axn,29.41
2024-01-22T01:50:00,axn,29.06
2024-01-22T01:51:00,axn,29.24
2024-01-22T01:52:00,axn,29.99
2024-01-22T01:53:00,axn,28.72
2024-01-22T01:54:00,axn,28.82
2024-01-22T01:55:00,axn,39.27
2024-01-22T01:56:00,axn,39.44
2024-01-22T01:57:00,axn,39.33
2024-01-22T01:58:00,axn,39.30
2024-01-22T01:59:00,axn,29.26
2024-01-22T02:00:00,axn,29.48
2024-01-22T02:01:00,axn,29.17
2024-01-22T02:02:00,axn,29.47
2024-01-22T02:03:00,axn,29.02
2024-01-22T02:04:00,axn,29.84
2024-01-22T02:05:00,axn,29.21
2024-01-22T02:06:00,axn,29.68
2024-01-22T02:07:00,axn,29.19
2024-01-22T02:08:00,axn,29.28
2024-01-22T02:09:00,axn,29.17
2024-01-22T02:10:00,axn,29.01
2024-01-22T02:11:00,axn,33.01
2024-01-22T02:12:00,axn,35.13
2024-01-22T02:13:00,axn,35.23
2024-01-22T02:14:00,axn,35.09
2024-01-22T02:15:00,axn,35.54
2024-01-22T02:16:00,axn,35.70
2024-01-22T02:17:00,axn,35.77
2024-01-22T02:18:00,axn,35.95
2024-01-22T02:19:00,axn,35.47
2024-01-22T02:20:00,axn,35.63
2024-01-22T02:21:00,axn,35.22
2024-01-22T02:22:00,axn,34.88
2024-01-22T02:23:00,axn,34.81
2024-01-22T02:24:00,axn,35.06
2024-01-22T02:25:00,axn,35.22
2024-01-22T02:26:00,axn,35.23
2024-01-22T02:27:00,axn,36.03
2024-01-22T02:28:00,axn,35.84
2024-01-22T02:29:00,axn,35.57
2024-01-22T02:30:00,axn,34.92
2024-01-22T02:31:00,axn,34.75
2024-01-22T02:32:00,axn,34.72
2024-01-22T02:33:00,axn,34.96
2024-01-22T02:34:00,axn,34.65
2024-01-22T02:35:00,axn,34.56
2024-01-22T02:36:00,axn,35.14
2024-01-22T02:37:00,axn,29.41
2024-01-22T02:38:00,axn,29.29
2024-01-22T02:39:00,axn,29.43
2024-01-22T02:40:00,axn,29.41
2024-01-22T02:41:00,axn,29.37
2024-01-22T02:42:00,axn,29.46
2024-01-22T02:43:00,axn,28.99
2024-01-22T02:44:00,axn,29.16
2024-01-22T02:45:00,axn,29.09
2024-01-22T02:46:00,axn,29.27
2024-01-22T02:47:00,axn,29.09
2024-01-22T02:48:00,axn,28.84
2024-01-22T02:49:00,axn,29.64
2024-01-22T02:50:00,axn,29.17
2024-01-22T02:51:00,axn,28.98
2024-01-22T02:52:00,axn,28.96
2024-01-22T02:53:00,axn,28.93
2024-01-22T02:54:00,axn,28.99
2024-01-22T02:55:00,axn,29.04
2024-01-22T02:56:00,axn,29.01
2024-01-22T02:57:00,axn,29.18
2024-01-22T02:58:00,axn,29.05
2024-01-22T02:59:00,axn,29.00
2024-01-22T03:00:00,axn,28.77
2024-01-22T03:01:00,axn,28.59
2024-01-22T03:02:00,axn,28.51
2024-01-22T03:03:00,axn,29.07
2024-01-22T03:04:00,axn,28.49
2024-01-22T03:05:00,axn,43.27
2024-01-22T03:06:00,axn,42.79
2024-01-22T03:07:00,axn,42.93
2024-01-22T03:08:00,axn,42.49
2024-01-22T03:09:00,axn,42.40
2024-01-22T03:10:00,axn,28.38
2024-01-22T03:11:00,axn,28.30
2024-01-22T03:12:00,axn,28.43
2024-01-22T03:13:00,axn,28.37
2024-01-22T03:14:00,axn,28.30
2024-01-22T03:15:00,axn,28.35
2024-01-22T03:16:00,axn,28.55
2024-01-22T03:17:00,axn,28.63
2024-01-22T03:18:00,axn,28.47
2024-01-22T03:19:00,axn,28.75
2024-01-22T03:20:00,axn,28.44
2024-01-22T03:21:00,axn,28.45
2024-01-22T03:22:00,axn,28.54
2024-01-22T03:23:00,axn,28.74
2024-01-22T03:24:00,axn,28.45
2024-01-22T03:25:00,axn,28.60
2024-01-22T03:26:00,axn,28.64
2024-01-22T03:27:00,axn,28.65
2024-01-22T03:28:00,axn,28.56
2024-01-22T03:29:00,axn,28.64
2024-01-22T03:30:00,axn,28.51
2024-01-22T03:31:00,axn,28.58
2024-01-22T03:32:00,axn,28.72
2024-01-22T03:33:00,axn,28.48
2024-01-22T03:34:00,axn,28.63
2024-01-22T03:35:00,axn,28.73
2024-01-22T03:36:00,axn,28.29
2024-01-22T03:37:00,axn,28.50
2024-01-22T03:38:00,axn,28.98
2024-01-22T03:39:00,axn,29.20
2024-01-22T03:40:00,axn,33.75
2024-01-22T03:41:00,axn,28.60
2024-01-22T03:42:00,axn,28.56
2024-01-22T03:43:00,axn,28.36
2024-01-22T03:44:00,axn,28.43
2024-01-22T03:45:00,axn,28.55
2024-01-22T03:46:00,axn,28.44
2024-01-22T03:47:00,axn,28.50
2024-01-22T03:48:00,axn,28.33
2024-01-22T03:49:00,axn,28.42
2024-01-22T03:50:00,axn,28.41
2024-01-22T03:51:00,axn,28.44
2024-01-22T03:52:00,axn,28.28
2024-01-22T03:53:00,axn,29.03
2024-01-22T03:54:00,axn,28.67
2024-01-22T03:55:00,axn,28.39
2024-01-22T03:56:00,axn,28.55
2024-01-22T03:57:00,axn,28.47
2024-01-22T03:58:00,axn,28.36
2024-01-22T03:59:00,axn,28.53
2024-01-22T04:00:00,axn,28.34
2024-01-22T04:01:00,axn,28.09
2024-01-22T04:02:00,axn,28.07
2024-01-22T04:03:00,axn,27.89
2024-01-22T04:04:00,axn,28.21
2024-01-22T04:05:00,axn,28.39
2024-01-22T04:06:00,axn,27.96
2024-01-22T04:07:00,axn,27.76
2024-01-22T04:08:00,axn,27.87
2024-01-22T04:09:00,axn,27.84
2024-01-22T04:10:00,axn,27.73
2024-01-22T04:11:00,axn,27.91
2024-01-22T04:12:00,axn,27.67
2024-01-22T04:13:00,axn,31.56
2024-01-22T04:14:00,axn,34.11
2024-01-22T04:15:00,axn,33.57
2024-01-22T04:16:00,axn,34.22
2024-01-22T04:17:00,axn,34.48
2024-01-22T04:18:00,axn,34.46
2024-01-22T04:19:00,axn,34.38
2024-01-22T04:20:00,axn,34.70
2024-01-22T04:21:00,axn,34.20
2024-01-22T04:22:00,axn,34.25
2024-01-22T04:23:00,axn,40.40
2024-01-22T04:24:00,axn,40.64
2024-01-22T04:25:00,axn,40.83
2024-01-22T04:26:00,axn,40.80
2024-01-22T04:27:00,axn,40.68
2024-01-22T04:28:00,axn,40.69
2024-01-22T04:29:00,axn,40.69
2024-01-22T04:30:00,axn,34.79
2024-01-22T04:31:00,axn,34.64
2024-01-22T04:32:00,axn,34.56
2024-01-22T04:33:00,axn,34.64
2024-01-22T04:34:00,axn,34.12
2024-01-22T04:35:00,axn,34.51
2024-01-22T04:36:00,axn,34.54
2024-01-22T04:37:00,axn,34.92
2024-01-22T04:38:00,axn,34.89
2024-01-22T04:39:00,axn,35.41
2024-01-22T04:40:00,axn,34.86
2024-01-22T04:41:00,axn,35.07
2024-01-22T04:42:00,axn,34.58
2024-01-22T04:43:00,axn,34.05
2024-01-22T04:44:00,axn,34.84
2024-01-22T04:45:00,axn,34.59
2024-01-22T04:46:00,axn,34.52
2024-01-22T04:47:00,axn,34.69
2024-01-22T04:48:00,axn,33.85
2024-01-22T04:49:00,axn,33.46
2024-01-22T04:50:00,axn,34.86
2024-01-22T04:51:00,axn,42.14
2024-01-22T04:52:00,axn,41.98
2024-01-22T04:53:00,axn,41.89
2024-01-22T04:54:00,axn,42.01
2024-01-22T04:55:00,axn,36.60
2024-01-22T04:56:00,axn,36.55
2024-01-22T04:57:00,axn,36.56
2024-01-22T04:58:00,axn,61.43
2024-01-22T04:59:00,axn,36.70
2024-01-22T05:00:00,axn,36.75
2024-01-22T05:01:00,axn,35.82
2024-01-22T05:02:00,axn,37.00
2024-01-22T05:03:00,axn,38.51
2024-01-22T05:04:00,axn,36.65
2024-01-22T05:05:00,axn,39.24
2024-01-22T05:06:00,axn,39.25
2024-01-22T05:07:00,axn,35.19
2024-01-22T05:08:00,axn,35.40
2024-01-22T05:09:00,axn,35.55
2024-01-22T05:10:00,axn,35.87
2024-01-22T05:11:00,axn,35.85
2024-01-22T05:12:00,axn,35.70
2024-01-22T05:13:00,axn,35.53
2024-01-22T05:14:00,axn,35.50
2024-01-22T05:15:00,axn,35.89
2024-01-22T05:16:00,axn,35.84
2024-01-22T05:17:00,axn,35.46
2024-01-22T05:18:00,axn,35.82
2024-01-22T05:19:00,axn,36.44
2024-01-22T05:20:00,axn,36.25
2024-01-22T05:21:00,axn,36.19
2024-01-22T05:22:00,axn,27.67
2024-01-22T05:23:00,axn,27.94
2024-01-22T05:24:00,axn,28.06
2024-01-22T05:25:00,axn,28.08
2024-01-22T05:26:00,axn,29.22
2024-01-22T05:27:00,axn,29.53
2024-01-22T05:28:00,axn,28.97
2024-01-22T05:29:00,axn,28.66
2024-01-22T05:30:00,axn,28.75
2024-01-22T05:31:00,axn,28.95
2024-01-22T05:32:00,axn,29.23
2024-01-22T05:33:00,axn,29.08
2024-01-22T05:34:00,axn,28.80
2024-01-22T05:35:00,axn,29.30
2024-01-22T05:36:00,axn,29.60
2024-01-22T05:37:00,axn,29.57
2024-01-22T05:38:00,axn,29.79
2024-01-22T05:39:00,axn,30.18
2024-01-22T05:40:00,axn,29.55
2024-01-22T05:41:00,axn,29.76
2024-01-22T05:42:00,axn,29.78
2024-01-22T05:43:00,axn,33.44
2024-01-22T05:44:00,axn,33.99
2024-01-22T05:45:00,axn,33.98
2024-01-22T05:46:00,axn,29.37
2024-01-22T05:47:00,axn,29.06
2024-01-22T05:48:00,axn,29.07
2024-01-22T05:49:00,axn,28.99
2024-01-22T05:50:00,axn,28.90
2024-01-22T05:51:00,axn,28.95
2024-01-22T05:52:00,axn,28.91
2024-01-22T05:53:00,axn,28.36
2024-01-22T05:54:00,axn,28.16
2024-01-22T05:55:00,axn,28.85
2024-01-22T05:56:00,axn,28.88
2024-01-22T05:57:00,axn,29.23
2024-01-22T05:58:00,axn,28.71
2024-01-22T05:59:00,axn,38.95
2024-01-22T06:00:00,axn,46.26
2024-01-22T06:01:00,axn,29.12
2024-01-22T06:02:00,axn,29.22
2024-01-22T06:03:00,axn,29.51
2024-01-22T06:04:00,axn,30.19
2024-01-22T06:05:00,axn,29.64
2024-01-22T06:06:00,axn,29.88
2024-01-22T06:07:00,axn,29.42
2024-01-22T06:08:00,axn,29.25
2024-01-22T06:09:00,axn,29.34
2024-01-22T06:10:00,axn,29.03
2024-01-22T06:11:00,axn,29.63
2024-01-22T06:12:00,axn,28.62
2024-01-22T06:13:00,axn,28.61
2024-01-22T06:14:00,axn,29.11
2024-01-22T06:15:00,axn,28.92
2024-01-22T06:16:00,axn,29.15
2024-01-22T06:17:00,axn,29.38
2024-01-22T06:18:00,axn,28.87
2024-01-22T06:19:00,axn,29.33
2024-01-22T06:20:00,axn,45.69
2024-01-22T06:21:00,axn,29.73
2024-01-22T06:22:00,axn,29.18
2024-01-22T06:23:00,axn,28.86
2024-01-22T06:24:00,axn,29.06
2024-01-22T06:25:00,axn,29.21
2024-01-22T06:26:00,axn,29.47
2024-01-22T06:27:00,axn,29.63
2024-01-22T06:28:00,axn,29.47
2024-01-22T06:29:00,axn,29.77
2024-01-22T06:30:00,axn,29.30
2024-01-22T06:31:00,axn,29.36
2024-01-22T06:32:00,axn,29.46
2024-01-22T06:33:00,axn,29.25
2024-01-22T06:34:00,axn,29.45
2024-01-22T06:35:00,axn,29.15
2024-01-22T06:36:00,axn,29.92
2024-01-22T06:37:00,axn,29.74
2024-01-22T06:38:00,axn,44.43
2024-01-22T06:39:00,axn,28.51
2024-01-22T06:40:00,axn,28.48
2024-01-22T06:41:00,axn,29.08
2024-01-22T06:42:00,axn,29.14
2024-01-22T06:43:00,axn,28.88
2024-01-22T06:44:00,axn,29.00
2024-01-22T06:45:00,axn,28.86
2024-01-22T06:46:00,axn,29.03
2024-01-22T06:47:00,axn,29.02
2024-01-22T06:48:00,axn,28.63
2024-01-22T06:49:00,axn,28.65
2024-01-22T06:50:00,axn,28.71
2024-01-22T06:51:00,axn,28.82
2024-01-22T06:52:00,axn,28.76
2024-01-22T06:53:00,axn,28.58
2024-01-22T06:54:00,axn,38.33
2024-01-22T06:55:00,axn,38.43
2024-01-22T06:56:00,axn,37.92
2024-01-22T06:57:00,axn,41.06
2024-01-22T06:58:00,axn,42.85
2024-01-22T06:59:00,axn,33.44
2024-01-22T07:00:00,axn,33.47
2024-01-22T07:01:00,axn,32.61
2024-01-22T07:02:00,axn,33.08
2024-01-22T07:03:00,axn,33.36
2024-01-22T07:04:00,axn,32.89
2024-01-22T07:05:00,axn,33.81
2024-01-22T07:06:00,axn,33.38
2024-01-22T07:07:00,axn,34.25
2024-01-22T07:08:00,axn,34.82
2024-01-22T07:09:00,axn,34.43
2024-01-22T07:10:00,axn,33.50
2024-01-22T07:11:00,axn,34.52
2024-01-22T07:12:00,axn,34.62
2024-01-22T07:13:00,axn,34.87
2024-01-22T07:14:00,axn,35.07
2024-01-22T07:15:00,axn,35.29
2024-01-22T07:16:00,axn,35.04
2024-01-22T07:17:00,axn,34.95
2024-01-22T07:18:00,axn,35.04
2024-01-22T07:19:00,axn,35.19
2024-01-22T07:20:00,axn,35.65
2024-01-22T07:21:00,axn,36.65
2024-01-22T07:22:00,axn,50.53
2024-01-22T07:23:00,axn,51.68
2024-01-22T07:24:00,axn,51.87
2024-01-22T07:25:00,axn,53.14
2024-01-22T07:26:00,axn,50.90
2024-01-22T07:27:00,axn,49.92
2024-01-22T07:28:00,axn,35.56
2024-01-22T07:29:00,axn,52.11
2024-01-22T07:30:00,axn,35.45
2024-01-22T07:31:00,axn,34.67
2024-01-22T07:32:00,axn,34.79
2024-01-22T07:33:00,axn,36.82
2024-01-22T07:34:00,axn,41.82
2024-01-22T07:35:00,axn,40.78
2024-01-22T07:36:00,axn,42.99
2024-01-22T07:37:00,axn,40.84
2024-01-22T07:38:00,axn,40.58
2024-01-22T07:39:00,axn,41.40
2024-01-22T07:40:00,axn,42.07
2024-01-22T07:41:00,axn,40.89
2024-01-22T07:42:00,axn,40.44
2024-01-22T07:43:00,axn,41.10
2024-01-22T07:44:00,axn,40.32
2024-01-22T07:45:00,axn,40.84
2024-01-22T07:46:00,axn,41.62
2024-01-22T07:47:00,axn,41.48
2024-01-22T07:48:00,axn,41.29
2024-01-22T07:49:00,axn,41.06
2024-01-22T07:50:00,axn,41.43
2024-01-22T07:51:00,axn,41.50
2024-01-22T07:52:00,axn,42.01
2024-01-22T07:53:00,axn,42.09
2024-01-22T07:54:00,axn,46.66
2024-01-22T07:55:00,axn,42.93
2024-01-22T07:56:00,axn,42.79
2024-01-22T07:57:00,axn,41.91
2024-01-22T07:58:00,axn,41.69
2024-01-22T07:59:00,axn,41.33
2024-01-22T08:00:00,axn,42.98
2024-01-22T08:01:00,axn,43.83
2024-01-22T08:02:00,axn,43.73
2024-01-22T08:03:00,axn,47.54
2024-01-22T08:04:00,axn,43.78
2024-01-22T08:05:00,axn,44.09
2024-01-22T08:06:00,axn,44.21
2024-01-22T08:07:00,axn,44.20
2024-01-22T08:08:00,axn,43.73
2024-01-22T08:09:00,axn,44.87
2024-01-22T08:10:00,axn,44.91
2024-01-22T08:11:00,axn,43.19
2024-01-22T08:12:00,axn,43.32
2024-01-22T08:13:00,axn,43.14
2024-01-22T08:14:00,axn,44.76
2024-01-22T08:15:00,axn,44.94
2024-01-22T08:16:00,axn,44.56
2024-01-22T08:17:00,axn,43.55
2024-01-22T08:18:00,axn,43.25
2024-01-22T08:19:00,axn,43.26
2024-01-22T08:20:00,axn,43.25
2024-01-22T08:21:00,axn,42.92
2024-01-22T08:22:00,axn,43.20
2024-01-22T08:23:00,axn,43.62
2024-01-22T08:24:00,axn,43.93
2024-01-22T08:25:00,axn,43.12
2024-01-22T08:26:00,axn,42.48
2024-01-22T08:27:00,axn,42.80
2024-01-22T08:28:00,axn,43.24
2024-01-22T08:29:00,axn,42.81
2024-01-22T08:30:00,axn,42.83
2024-01-22T08:31:00,axn,42.87
2024-01-22T08:32:00,axn,42.67
2024-01-22T08:33:00,axn,43.23
2024-01-22T08:34:00,axn,43.08
2024-01-22T08:35:00,axn,43.68
2024-01-22T08:36:00,axn,43.64
2024-01-22T08:37:00,axn,42.88
2024-01-22T08:38:00,axn,43.06
2024-01-22T08:39:00,axn,44.14
2024-01-22T08:40:00,axn,42.84
2024-01-22T08:41:00,axn,43.05
2024-01-22T08:42:00,axn,43.11
2024-01-22T08:43:00,axn,43.05
2024-01-22T08:44:00,axn,44.46
2024-01-22T08:45:00,axn,44.66
2024-01-22T08:46:00,axn,43.37
2024-01-22T08:47:00,axn,43.44
2024-01-22T08:48:00,axn,43.16
2024-01-22T08:49:00,axn,43.32
2024-01-22T08:50:00,axn,44.26
2024-01-22T08:51:00,axn,44.99
2024-01-22T08:52:00,axn,45.33
2024-01-22T08:53:00,axn,43.69
2024-01-22T08:54:00,axn,43.74
2024-01-22T08:55:00,axn,43.65
2024-01-22T08:56:00,axn,43.57
2024-01-22T08:57:00,axn,44.04
2024-01-22T08:58:00,axn,43.54
2024-01-22T08:59:00,axn,42.97
2024-01-22T09:00:00,axn,43.29
2024-01-22T09:01:00,axn,43.17
2024-01-22T09:02:00,axn,43.14
2024-01-22T09:03:00,axn,43.16
2024-01-22T09:04:00,axn,43.04
2024-01-22T09:05:00,axn,44.01
2024-01-22T09:06:00,axn,43.86
2024-01-22T09:07:00,axn,44.26
2024-01-22T09:08:00,axn,43.36
2024-01-22T09:09:00,axn,42.97
2024-01-22T09:10:00,axn,42.58
2024-01-22T09:11:00,axn,42.51
2024-01-22T09:12:00,axn,43.29
2024-01-22T09:13:00,axn,43.55
2024-01-22T09:14:00,axn,42.99
2024-01-22T09:15:00,axn,44.19
2024-01-22T09:16:00,axn,44.14
2024-01-22T09:17:00,axn,43.58
2024-01-22T09:18:00,axn,42.99
2024-01-22T09:19:00,axn,42.91
2024-01-22T09:20:00,axn,42.63
2024-01-22T09:21:00,axn,42.75
2024-01-22T09:22:00,axn,43.51
2024-01-22T09:23:00,axn,43.38
2024-01-22T09:24:00,axn,43.76
2024-01-22T09:25:00,axn,43.09
2024-01-22T09:26:00,axn,43.95
2024-01-22T09:27:00,axn,44.99
2024-01-22T09:28:00,axn,44.82
2024-01-22T09:29:00,axn,45.64
2024-01-22T09:30:00,axn,43.76
2024-01-22T09:31:00,axn,44.43
2024-01-22T09:32:00,axn,43.91
2024-01-22T09:33:00,axn,43.67
2024-01-22T09:34:00,axn,43.76
2024-01-22T09:35:00,axn,43.57
2024-01-22T09:36:00,axn,43.89
2024-01-22T09:37:00,axn,43.55
2024-01-22T09:38:00,axn,46.26
2024-01-22T09:39:00,axn,47.10
2024-01-22T09:40:00,axn,44.16
2024-01-22T09:41:00,axn,43.78
2024-01-22T09:42:00,axn,43.45
2024-01-22T09:43:00,axn,43.59
2024-01-22T09:44:00,axn,43.27
2024-01-22T09:45:00,axn,43.75
2024-01-22T09:46:00,axn,43.64
2024-01-22T09:47:00,axn,43.78
2024-01-22T09:48:00,axn,43.75
2024-01-22T09:49:00,axn,43.97
2024-01-22T09:50:00,axn,44.09
2024-01-22T09:51:00,axn,45.09
2024-01-22T09:52:00,axn,44.70
2024-01-22T09:53:00,axn,44.18
2024-01-22T09:54:00,axn,45.05
2024-01-22T09:55:00,axn,44.42
2024-01-22T09:56:00,axn,44.83
2024-01-22T09:57:00,axn,47.22
2024-01-22T09:58:00,axn,44.73
2024-01-22T09:59:00,axn,44.89
2024-01-22T10:00:00,axn,45.51
2024-01-22T10:01:00,axn,45.24
2024-01-22T10:02:00,axn,45.40
2024-01-22T10:03:00,axn,46.14
2024-01-22T10:04:00,axn,46.81
2024-01-22T10:05:00,axn,46.98
2024-01-22T10:06:00,axn,46.95
2024-01-22T10:07:00,axn,47.05
2024-01-22T10:08:00,axn,47.17
2024-01-22T10:09:00,axn,47.48
2024-01-22T10:10:00,axn,47.61
2024-01-22T10:11:00,axn,46.67
2024-01-22T10:12:00,axn,47.75
2024-01-22T10:13:00,axn,48.23
2024-01-22T10:14:00,axn,48.70
2024-01-22T10:15:00,axn,57.99
2024-01-22T10:16:00,axn,47.14
2024-01-22T10:17:00,axn,47.57
2024-01-22T10:18:00,axn,48.19
2024-01-22T10:19:00,axn,48.78
2024-01-22T10:20:00,axn,47.56
2024-01-22T10:21:00,axn,48.03
2024-01-22T10:22:00,axn,47.79
2024-01-22T10:23:00,axn,48.17
2024-01-22T10:24:00,axn,53.64
2024-01-22T10:25:00,axn,53.69
2024-01-22T10:26:00,axn,53.98
2024-01-22T10:27:00,axn,48.18
2024-01-22T10:28:00,axn,49.91
2024-01-22T10:29:00,axn,52.77
2024-01-22T10:30:00,axn,50.79
2024-01-22T10:31:00,axn,50.21
2024-01-22T10:32:00,axn,50.75
2024-01-22T10:33:00,axn,50.06
2024-01-22T10:34:00,axn,48.25
2024-01-22T10:35:00,axn,48.05
2024-01-22T10:36:00,axn,48.57
2024-01-22T10:37:00,axn,48.15
2024-01-22T10:38:00,axn,48.14
2024-01-22T10:39:00,axn,48.62
2024-01-22T10:40:00,axn,48.14
2024-01-22T10:41:00,axn,47.96
2024-01-22T10:42:00,axn,47.82
2024-01-22T10:43:00,axn,47.43
2024-01-22T10:44:00,axn,47.79
2024-01-22T10:45:00,axn,47.37
2024-01-22T10:46:00,axn,47.90
2024-01-22T10:47:00,axn,47.47
2024-01-22T10:48:00,axn,48.31
2024-01-22T10:49:00,axn,47.59
2024-01-22T10:50:00,axn,47.51
2024-01-22T10:51:00,axn,47.42
2024-01-22T10:52:00,axn,47.80
2024-01-22T10:53:00,axn,48.32
2024-01-22T10:54:00,axn,49.60
2024-01-22T10:55:00,axn,50.47
2024-01-22T10:56:00,axn,48.03
2024-01-22T10:57:00,axn,48.60
2024-01-22T10:58:00,axn,50.68
2024-01-22T10:59:00,axn,51.94
2024-01-22T11:00:00,axn,51.03
2024-01-22T11:01:00,axn,50.70
2024-01-22T11:02:00,axn,51.78
2024-01-22T11:03:00,axn,49.94
2024-01-22T11:04:00,axn,57.85
2024-01-22T11:05:00,axn,58.31
2024-01-22T11:06:00,axn,58.53
2024-01-22T11:07:00,axn,58.35
2024-01-22T11:08:00,axn,59.73
2024-01-22T11:09:00,axn,58.69
2024-01-22T11:10:00,axn,58.67
2024-01-22T11:11:00,axn,59.42
2024-01-22T11:12:00,axn,58.85
2024-01-22T11:13:00,axn,58.89
2024-01-22T11:14:00,axn,59.05
2024-01-22T11:15:00,axn,57.27
2024-01-22T11:16:00,axn,68.21
2024-01-22T11:17:00,axn,68.74
2024-01-22T11:18:00,axn,67.75
2024-01-22T11:19:00,axn,68.77
2024-01-22T11:20:00,axn,81.63
2024-01-22T11:21:00,axn,81.97
2024-01-22T11:22:00,axn,71.33
2024-01-22T11:23:00,axn,73.62
2024-01-22T11:24:00,axn,72.01
2024-01-22T11:25:00,axn,70.80
2024-01-22T11:26:00,axn,57.01
2024-01-22T11:27:00,axn,60.70
2024-01-22T11:28:00,axn,57.43
2024-01-22T11:29:00,axn,59.09
2024-01-22T11:30:00,axn,57.65
2024-01-22T11:31:00,axn,49.01
2024-01-22T11:32:00,axn,49.23
2024-01-22T11:33:00,axn,49.23
2024-01-22T11:34:00,axn,51.22
2024-01-22T11:35:00,axn,49.47
2024-01-22T11:36:00,axn,49.40
2024-01-22T11:37:00,axn,49.39
2024-01-22T11:38:00,axn,48.57
2024-01-22T11:39:00,axn,48.64
2024-01-22T11:40:00,axn,48.11
2024-01-22T11:41:00,axn,48.39
2024-01-22T11:42:00,axn,48.47
2024-01-22T11:43:00,axn,48.13
2024-01-22T11:44:00,axn,48.18
2024-01-22T11:45:00,axn,48.06
2024-01-22T11:46:00,axn,48.07
2024-01-22T11:47:00,axn,47.90
2024-01-22T11:48:00,axn,48.13
2024-01-22T11:49:00,axn,48.04
2024-01-22T11:50:00,axn,47.84
2024-01-22T11:51:00,axn,48.84
2024-01-22T11:52:00,axn,48.83
2024-01-22T11:53:00,axn,49.04
2024-01-22T11:54:00,axn,48.18
2024-01-22T11:55:00,axn,48.42
2024-01-22T11:56:00,axn,48.73
2024-01-22T11:57:00,axn,48.23
2024-01-22T11:58:00,axn,49.09
2024-01-22T11:59:00,axn,50.16
2024-01-22T12:00:00,axn,48.82
2024-01-22T12:01:00,axn,49.14
2024-01-22T12:02:00,axn,56.29
2024-01-22T12:03:00,axn,72.85
2024-01-22T12:04:00,axn,56.37
2024-01-22T12:05:00,axn,56.57
2024-01-22T12:06:00,axn,58.47
2024-01-22T12:07:00,axn,57.80
2024-01-22T12:08:00,axn,58.74
2024-01-22T12:09:00,axn,57.70
2024-01-22T12:10:00,axn,57.00
2024-01-22T12:11:00,axn,57.12
2024-01-22T12:12:00,axn,59.16
2024-01-22T12:13:00,axn,57.52
2024-01-22T12:14:00,axn,57.41
2024-01-22T12:15:00,axn,57.57
2024-01-22T12:16:00,axn,56.84
2024-01-22T12:17:00,axn,57.83
2024-01-22T12:18:00,axn,56.80
2024-01-22T12:19:00,axn,56.85
2024-01-22T12:20:00,axn,56.27
2024-01-22T12:21:00,axn,56.83
2024-01-22T12:22:00,axn,56.68
2024-01-22T12:23:00,axn,56.42
2024-01-22T12:24:00,axn,70.16
2024-01-22T12:25:00,axn,57.67
2024-01-22T12:26:00,axn,58.98
2024-01-22T12:27:00,axn,59.00
2024-01-22T12:28:00,axn,58.12
2024-01-22T12:29:00,axn,57.56
2024-01-22T12:30:00,axn,56.90
2024-01-22T12:31:00,axn,57.28
2024-01-22T12:32:00,axn,56.87
2024-01-22T12:33:00,axn,57.89
2024-01-22T12:34:00,axn,56.42
2024-01-22T12:35:00,axn,56.57
2024-01-22T12:36:00,axn,56.01
2024-01-22T12:37:00,axn,55.32
2024-01-22T12:38:00,axn,54.05
2024-01-22T12:39:00,axn,55.50
2024-01-22T12:40:00,axn,55.13
2024-01-22T12:41:00,axn,55.34
2024-01-22T12:42:00,axn,55.54
2024-01-22T12:43:00,axn,55.44
2024-01-22T12:44:00,axn,55.73
2024-01-22T12:45:00,axn,55.61
2024-01-22T12:46:00,axn,55.96
2024-01-22T12:47:00,axn,55.97
2024-01-22T12:48:00,axn,57.22
2024-01-22T12:49:00,axn,56.57
2024-01-22T12:50:00,axn,56.93
2024-01-22T12:51:00,axn,56.04
2024-01-22T12:52:00,axn,56.18
2024-01-22T12:53:00,axn,61.83
2024-01-22T12:54:00,axn,56.05
2024-01-22T12:55:00,axn,56.81
2024-01-22T12:56:00,axn,56.23
2024-01-22T12:57:00,axn,57.01
2024-01-22T12:58:00,axn,58.27
2024-01-22T12:59:00,axn,58.02
2024-01-22T13:00:00,axn,58.06
2024-01-22T13:01:00,axn,57.59
2024-01-22T13:02:00,axn,58.30
2024-01-22T13:03:00,axn,56.47
2024-01-22T13:04:00,axn,56.16
2024-01-22T13:05:00,axn,56.95
2024-01-22T13:06:00,axn,57.46
2024-01-22T13:07:00,axn,56.49
2024-01-22T13:08:00,axn,57.53
2024-01-22T13:09:00,axn,56.76
2024-01-22T13:10:00,axn,57.76
2024-01-22T13:11:00,axn,60.59
2024-01-22T13:12:00,axn,60.37
2024-01-22T13:13:00,axn,60.48
2024-01-22T13:14:00,axn,60.69
2024-01-22T13:15:00,axn,55.98
2024-01-22T13:16:00,axn,55.62
2024-01-22T13:17:00,axn,56.37
2024-01-22T13:18:00,axn,55.47